Probability
0 0 0 0 0 0 0 0 0 0 0 0 0 0 0 0 0 0 0 0 0 0 0 0 0 0 0 0 0 0 0 0 0 0 0 0 0 0 0 0 0 0 0
0 0 0 0 1 1 0 0 0 0 0 0 0 0 0 0 0 0 0 0 0 0 0 0 0 0 0 0 0 0 0 0 0 0 0 0 0 0 0 0 0 0 0
0 0 0 1 2 2 1 0 0 0 0 0 0 0 0 0 0 0 0 0 0 0 0 0 0 0 0 0 0 0 0 0 0 0 0 0 0 0 0 0 0 0 0
0 0 0 1 2 3 2 1 0 0 0 0 0 0 0 0 0 0 0 0 0 0 0 0 0 0 0 0 0 0 0 0 0 0 0 0 0 0 0 0 0 0 0
0 0 0 1 2 3 3 2 1 0 0 0 0 0 0 0 0 0 0 0 0 0 0 0 0 0 0 0 0 0 0 0 0 0 0 0 0 0 0 0 0 0 0
0 0 0 1 2 3 3 3 2 1 1 1 0 0 0 0 0 0 0 0 0 0 0 0 0 0 0 0 0 0 0 0 0 0 0 0 0 0 0 0 0 0 0
0 0 0 0 1 2 3 3 3 3 2 1 0 0 0 0 0 0 0 0 0 0 0 0 0 0 0 0 0 0 0 0 0 0 0 0 0 0 0 0 0 0 0
0 0 0 0 0 1 1 2 3 3 3 2 1 0 0 0 0 0 0 0 0 0 0 0 0 0 0 0 0 0 0 0 0 0 0 0 0 0 0 0 0 0 0
0 0 0 0 0 0 0 1 1 2 2 2 1 0 0 0 0 0 0 0 0 0 0 0 0 0 0 0 0 0 0 0 0 0 0 0 0 0 0 0 0 0 0
0 0 0 0 0 0 0 0 0 1 1 1 1 0 0 0 0 0 0 0 0 0 0 0 0 0 0 0 0 0 0 0 0 0 0 0 0 0 0 0 0 0 0
0 0 0 0 0 0 0 0 0 0 0 0 0 0 0 0 0 0 0 0 0 0 0 0 0 0 0 0 0 0 0 0 0 0 0 0 0 0 0 0 0 0 0
0 0 0 0 0 0 0 0 0 0 0 0 0 0 0 0 0 0 0 0 0 0 0 0 0 0 0 0 0 0 0 0 0 0 0 0 0 0 0 0 0 0 0
0 0 0 0 0 0 0 0 0 0 0 0 0 0 0 0 0 0 0 0 0 0 0 0 0 0 0 0 0 0 0 0 0 0 0 0 0 0 0 0 0 0 0
0 0 0 0 0 0 0 0 0 0 0 0 0 0 0 0 0 0 0 0 0 0 0 0 0 0 0 0 0 0 0 0 0 0 0 0 0 0 0 0 0 0 0
0 0 0 0 0 0 0 0 0 0 0 0 0 0 0 0 0 0 0 0 0 0 0 0 0 0 0 0 0 0 0 0 0 0 0 0 0 0 0 0 0 0 0
0 0 0 0 0 0 0 0 0 0 0 0 0 0 0 0 0 0 0 0 0 0 0 0 0 0 0 0 0 0 0 0 0 0 0 0 0 0 0 0 0 0 0
0 0 0 0 0 0 0 0 0 0 0 0 0 0 0 0 0 0 0 0 0 0 0 0 0 0 0 0 0 0 0 0 0 0 0 0 0 0 0 0 0 0 0
0 0 0 0 0 0 0 0 0 0 0 0 0 0 0 0 0 0 0 0 0 0 0 0 0 0 0 0 0 0 0 0 0 0 0 0 0 0 0 0 0 0 0
0 0 0 0 0 0 0 0 0 0 0 0 0 0 0 0 0 0 0 0 0 0 0 0 0 0 0 0 0 0 0 0 0 0 0 0 0 0 0 0 0 0 0
0 0 0 0 0 0 0 0 0 0 0 0 0 0 0 0 0 0 0 0 0 0 0 0 0 0 0 0 0 0 0 0 0 0 0 0 0 0 0 0 0 0 0
0 0 0 0 0 0 0 0 0 0 0 0 0 0 0 0 0 0 0 0 0 0 0 0 0 0 0 0 0 0 0 0 0 0 0 0 0 0 0 0 0 0 0
0 0 0 0 0 0 0 0 0 0 0 0 0 0 0 0 0 0 0 0 0 0 0 0 0 0 0 0 0 0 0 0 0 0 0 0 0 0 0 0 0 0 0
0 0 0 0 0 0 0 0 0 0 0 0 0 0 0 0 0 0 0 0 0 0 0 0 0 0 0 0 0 0 0 0 0 0 0 0 0 0 0 0 0 0 0
0 0 0 0 0 0 0 0 0 0 0 0 0 0 0 0 0 0 0 0 0 0 0 0 0 0 0 0 0 0 0 0 0 0 0 0 0 0 0 0 0 0 0
0 0 0 0 0 0 0 0 0 0 0 0 0 0 0 0 0 0 0 0 0 0 0 0 0 0 0 0 0 0 0 0 0 0 0 0 0 0 0 0 0 0 0
0 0 0 0 0 0 0 0 0 0 0 0 0 0 0 0 0 0 0 0 0 0 0 0 0 0 0 0 0 0 0 0 0 0 0 0 0 0 0 0 0 0 0
Wind_Speed
3 4 9 11 13 13 12 12 12 12 12 12 12 12 12 12 12 12 11 11 11 12 12 12 12 11 11 11 11 10 10 10 10 10 9 9 9 9 10 9 8 5 9
6 6 8 10 12 12 12 11 11 11 11 12 12 12 11 12 12 11 11 10 10 11 11 11 11 10 10 10 9 9 9 9 9 8 8 7 7 7 8 8 7 5 8
8 7 8 10 11 11 11 11 10 10 11 11 11 11 11 11 11 11 10 9 10 10 10 10 10 9 9 9 8 8 8 8 8 8 7 4 3 5 6 6 6 6 7
9 7 7 9 11 11 10 10 10 10 10 10 11 11 11 10 10 9 9 9 9 9 9 9 8 8 7 7 7 7 7 7 7 7 4 3 2 4 5 6 7 7 7
8 6 7 9 10 11 10 10 10 10 10 10 10 10 10 9 9 8 8 8 8 7 7 7 7 7 6 6 6 6 6 7 7 6 3 2 2 4 5 5 6 6 5
7 6 7 9 10 10 10 10 10 9 9 9 9 9 9 9 8 8 7 7 6 6 6 6 6 6 5 5 5 5 6 7 6 3 3 2 1 3 4 4 4 4 4
7 6 7 9 9 9 9 10 9 9 9 9 8 9 9 8 8 7 6 6 6 5 5 5 5 4 4 4 4 5 6 6 4 3 2 1 1 2 3 3 3 3 3
7 7 7 8 8 8 8 9 9 9 8 8 8 8 8 8 7 7 6 5 5 5 5 4 4 3 3 3 3 4 5 4 3 2 2 1 2 2 2 2 2 2 2
7 7 5 5 6 7 8 8 7 8 8 8 8 7 7 6 6 6 5 4 4 4 4 4 3 3 3 2 3 3 4 4 3 2 2 1 2 2 2 2 3 3 2
7 6 5 4 4 4 4 6 7 6 7 7 7 6 5 5 4 4 3 3 3 3 3 2 2 2 3 3 3 3 4 4 2 2 2 2 4 3 3 3 4 3 3
7 5 4 4 4 3 3 4 5 5 5 5 4 4 4 2 2 2 2 2 2 2 2 2 2 2 3 2 3 4 3 2 2 2 2 3 4 4 4 4 4 4 5
5 4 3 3 3 3 3 3 2 3 3 3 2 2 2 1 1 2 2 2 2 2 2 3 3 3 2 1 3 3 2 2 2 2 2 5 5 5 5 5 5 5 6
4 4 4 3 3 3 2 2 2 2 2 2 2 2 1 1 1 2 1 1 2 2 2 3 3 2 1 1 1 1 2 2 1 2 3 5 5 5 5 5 5 5 6
4 4 3 3 3 3 2 2 2 1 1 1 1 2 2 1 1 1 1 1 1 1 1 2 2 2 2 1 1 1 2 1 2 2 2 4 4 5 5 6 6 6 6
5 4 3 3 3 3 2 2 2 1 1 1 2 1 2 1 1 1 1 1 1 1 1 2 2 2 2 2 2 2 2 2 2 2 2 4 4 5 6 7 7 7 7
5 4 3 4 3 3 3 2 2 2 1 2 2 2 1 1 1 1 1 1 1 1 1 1 2 2 2 2 2 2 2 2 2 2 2 3 4 5 6 7 7 8 8
3 3 4 4 4 3 3 3 2 2 2 2 1 1 1 1 1 0 0 1 1 1 2 1 2 1 2 2 2 3 2 2 2 2 2 2 2 4 6 7 7 7 7
3 3 3 3 4 3 3 3 2 2 2 2 2 2 2 2 1 0 0 1 1 1 1 1 1 2 2 2 2 3 2 2 2 2 1 2 2 3 4 6 7 7 8
2 2 3 3 3 3 3 3 3 3 3 2 2 2 2 2 2 1 1 1 1 1 1 2 2 1 2 3 3 3 2 2 2 2 2 2 3 3 3 5 7 7 8
2 2 3 3 3 3 3 2 2 3 3 3 3 3 3 3 3 2 1 2 2 1 2 2 2 2 1 2 3 3 2 2 1 1 1 2 2 3 3 4 4 5 7
4 4 3 3 3 3 2 1 2 2 2 3 3 4 4 4 3 2 2 2 2 1 2 2 2 2 2 2 2 3 3 2 1 1 1 1 2 3 3 3 3 3 4
4 4 3 3 3 3 2 1 1 1 1 2 2 3 4 4 3 2 2 2 2 2 2 3 2 1 1 1 1 2 3 3 2 2 1 1 2 3 3 4 3 3 3
6 5 4 3 3 3 2 2 2 2 1 2 3 3 4 4 3 3 2 2 2 2 2 2 2 1 2 2 1 0 1 3 4 2 1 1 2 2 2 3 3 4 4
5 4 4 4 4 3 3 2 2 2 1 2 2 2 3 4 4 3 3 2 2 2 2 2 2 2 1 2 2 1 1 1 2 4 3 2 2 3 3 3 3 3 4
4 4 4 4 5 4 3 2 2 1 1 1 2 2 3 3 4 4 3 3 3 2 2 3 3 2 2 2 1 2 2 2 1 3 5 4 3 3 3 3 2 3 3
4 4 4 5 5 4 3 3 2 1 2 2 3 3 3 3 3 5 4 3 3 2 3 2 2 2 1 2 2 1 1 1 2 2 4 5 5 4 4 3 2 2 3
Wind_Direction
137 148 139 135 129 124 121 118 114 112 110 108 106 103 99 97 95 94 91 89 86 86 85 82 80 78 77 73 71 70 67 65 61 59 57 56 58 60 60 60 54 46 54
136 134 128 131 129 124 121 121 117 115 114 112 109 106 103 101 98 95 92 92 88 86 84 83 80 78 76 74 71 67 63 60 53 46 42 43 49 56 59 58 54 54 53
124 123 119 120 123 123 122 123 122 119 116 115 112 109 106 102 99 97 95 94 92 89 87 82 79 78 75 71 66 61 56 50 44 32 29 18 29 55 60 59 54 54 49
120 119 119 116 118 119 119 119 121 118 116 115 114 114 110 105 102 98 95 96 94 90 88 86 82 80 75 69 61 53 46 40 34 26 24 6 2 50 59 57 54 49 42
112 110 114 114 118 118 117 117 117 117 117 115 113 114 112 109 106 101 95 95 96 92 89 86 81 80 73 65 55 47 40 31 26 26 19 14 4 48 56 57 52 46 38
104 104 109 107 114 118 119 117 116 118 117 115 113 111 109 108 105 102 96 94 95 93 91 85 79 75 69 61 49 42 30 25 25 25 17 11 3 46 51 53 44 40 35
104 102 107 101 101 106 115 115 113 114 113 113 113 111 109 106 104 101 97 95 91 85 87 85 76 70 62 50 40 29 21 22 26 19 12 355 338 19 41 38 27 25 18
104 102 102 99 97 97 101 105 108 107 107 107 109 110 108 106 102 97 93 90 87 80 76 71 65 57 45 38 29 17 10 8 8 0 350 312 297 321 2 11 1 358 0
89 89 86 90 96 96 94 91 96 100 102 103 103 102 102 100 100 96 87 87 88 81 74 61 51 45 30 18 11 6 2 354 349 326 321 300 290 293 317 332 328 331 334
79 81 80 72 75 87 93 93 91 96 101 101 99 96 97 97 92 90 82 85 92 80 68 57 43 24 7 354 349 347 343 344 336 324 313 293 290 293 306 310 310 313 311
71 68 70 69 68 75 91 96 93 92 97 98 95 95 92 82 80 79 67 63 62 55 41 25 9 357 348 340 338 335 335 331 318 312 304 296 297 298 304 307 307 305 307
69 61 63 64 66 74 87 86 78 80 82 80 76 79 72 69 54 55 49 48 39 28 11 358 347 345 348 338 334 334 331 316 315 306 305 298 293 295 302 305 306 306 304
87 66 51 55 63 68 70 82 67 65 68 68 71 69 70 64 44 38 32 18 13 13 359 343 345 341 323 314 318 320 319 323 311 304 308 305 297 298 305 309 310 311 309
77 62 48 46 59 60 66 79 80 72 66 61 51 67 79 70 50 40 30 1 355 349 334 330 321 314 308 299 290 294 303 302 303 299 300 307 303 301 305 308 310 311 311
55 44 41 52 58 62 69 64 75 74 71 65 57 52 79 90 75 51 24 14 349 344 333 323 322 321 310 304 305 298 291 286 291 299 304 306 307 304 304 305 308 311 311
51 41 32 45 50 55 59 53 50 62 63 63 57 37 60 85 79 68 25 9 341 333 320 309 313 317 311 311 311 306 291 286 286 292 299 307 312 311 305 305 308 311 312
55 47 40 46 43 51 51 50 45 38 50 49 36 26 33 50 94 106 32 350 322 316 319 327 334 339 344 336 318 307 299 292 297 301 310 315 327 330 322 318 319 319 318
51 48 44 42 42 45 51 48 44 42 42 31 14 20 23 23 33 62 18 323 315 329 337 334 343 344 332 319 305 295 294 297 302 310 331 351 350 342 337 338 335 332 328
52 53 46 39 46 48 52 54 50 47 41 26 17 17 12 16 22 36 7 334 340 346 338 331 327 322 315 316 300 293 299 297 305 345 11 11 0 351 344 347 346 340 335
51 57 54 44 45 51 54 48 48 43 33 27 24 16 17 11 15 29 13 353 351 349 339 338 316 322 310 305 297 302 296 298 331 348 345 0 357 350 345 347 341 340 342
39 43 43 40 33 44 44 32 30 23 18 22 21 17 15 14 14 27 15 5 2 354 335 334 321 321 328 339 326 314 307 299 307 306 332 343 344 342 344 342 337 337 337
30 26 35 33 32 41 39 28 31 12 21 23 14 12 7 8 6 13 19 11 359 354 3 357 356 329 323 1 342 311 312 315 316 295 306 329 338 339 338 342 346 343 336
24 14 15 15 27 34 44 55 45 36 15 12 5 5 358 358 1 9 11 7 360 1 342 342 354 343 315 313 1 349 306 287 309 298 293 314 333 331 325 334 346 337 336
16 10 17 16 24 21 35 53 55 43 2 326 344 351 350 357 360 6 7 6 8 11 359 351 3 338 334 308 301 311 284 283 294 300 302 316 318 306 303 319 325 324 330
21 18 14 22 29 24 28 40 60 40 349 346 356 358 356 1 8 10 12 9 10 8 3 357 356 356 346 331 316 315 304 303 296 282 296 313 314 298 303 295 300 312 322
19 21 18 25 24 20 26 28 39 18 2 10 4 3 359 358 0 2 5 8 360 357 356 347 342 346 339 338 330 328 324 305 299 289 288 303 303 300 293 289 287 301 313